TimeMST,TemperatureF,Dew PointF,Humidity,Sea Level PressureIn,VisibilityMPH,Wind Direction,Wind SpeedMPH,Gust SpeedMPH,PrecipitationIn,Events,Conditions,WindDirDegrees,DateUTC
7:35 AM,14.0,10.4,86,29.99,10.0,ENE,4.6,-,N/A,,Clear,60,2013-02-21 14:35:00
7:55 AM,15.8,10.4,79,30.00,10.0,ENE,3.5,-,N/A,,Partly Cloudy,60,2013-02-21 14:55:00
8:15 AM,15.8,10.4,79,30.01,10.0,Calm,Calm,-,N/A,,Partly Cloudy,0,2013-02-21 15:15:00
8:35 AM,17.6,10.4,73,30.01,10.0,East,4.6,-,N/A,,Clear,100,2013-02-21 15:35:00
8:55 AM,17.6,10.4,73,30.02,10.0,Calm,Calm,-,N/A,,Clear,0,2013-02-21 15:55:00
9:15 AM,19.4,10.4,68,30.02,10.0,Calm,Calm,-,N/A,,Mostly Cloudy,0,2013-02-21 16:15:00
9:35 AM,19.4,12.2,74,30.01,10.0,East,3.5,-,N/A,,Mostly Cloudy,80,2013-02-21 16:35:00
9:55 AM,21.2,10.4,63,30.02,10.0,Calm,Calm,-,N/A,,Mostly Cloudy,0,2013-02-21 16:55:00
10:15 AM,21.2,12.2,68,30.01,10.0,Calm,Calm,-,N/A,,Overcast,0,2013-02-21 17:15:00
10:35 AM,23.0,12.2,63,30.01,10.0,Calm,Calm,-,N/A,,Overcast,0,2013-02-21 17:35:00
11:15 AM,24.8,12.2,59,30.01,10.0,SSE,5.8,-,N/A,,Overcast,160,2013-02-21 18:15:00
11:35 AM,24.8,14.0,64,30.01,10.0,SSE,5.8,-,N/A,,Overcast,160,2013-02-21 18:35:00
11:55 AM,24.8,14.0,64,29.99,10.0,South,3.5,-,N/A,,Overcast,170,2013-02-21 18:55:00
12:35 PM,26.6,15.8,64,29.99,10.0,SSE,6.9,-,N/A,,Scattered Clouds,160,2013-02-21 19:35:00
12:55 PM,28.4,15.8,59,29.98,10.0,SSE,6.9,-,N/A,,Scattered Clouds,150,2013-02-21 19:55:00
1:15 PM,28.4,15.8,59,29.98,10.0,SSE,5.8,-,N/A,,Mostly Cloudy,160,2013-02-21 20:15:00
1:35 PM,28.4,15.8,59,29.98,10.0,SSW,8.1,-,N/A,,Overcast,200,2013-02-21 20:35:00
1:55 PM,28.4,15.8,59,29.98,10.0,South,8.1,-,N/A,,Overcast,180,2013-02-21 20:55:00
2:15 PM,28.4,15.8,59,29.97,10.0,SSE,6.9,-,N/A,,Overcast,160,2013-02-21 21:15:00
2:35 PM,28.4,15.8,59,29.97,10.0,SSE,8.1,-,N/A,,Overcast,150,2013-02-21 21:35:00
2:55 PM,28.4,15.8,59,29.96,10.0,SSE,5.8,-,N/A,,Overcast,160,2013-02-21 21:55:00
3:15 PM,28.4,17.6,64,29.96,10.0,SE,4.6,-,N/A,,Overcast,130,2013-02-21 22:15:00
3:35 PM,28.4,17.6,64,29.96,10.0,SSE,5.8,-,N/A,,Overcast,160,2013-02-21 22:35:00
3:55 PM,28.4,15.8,59,29.96,10.0,South,4.6,-,N/A,,Overcast,180,2013-02-21 22:55:00
4:35 PM,28.4,17.6,64,29.95,10.0,SSE,6.9,-,N/A,,Overcast,150,2013-02-21 23:35:00
4:55 PM,28.4,15.8,59,29.95,10.0,SSE,5.8,-,N/A,,Overcast,150,2013-02-21 23:55:00
5:15 PM,28.4,17.6,64,29.94,10.0,South,4.6,-,N/A,,Overcast,180,2013-02-22 00:15:00
5:35 PM,28.4,17.6,64,29.94,10.0,SSW,5.8,-,N/A,,Overcast,200,2013-02-22 00:35:00
5:55 PM,28.4,15.8,59,29.94,10.0,SSW,4.6,-,N/A,,Overcast,210,2013-02-22 00:55:00
6:55 PM,26.6,17.6,69,29.94,10.0,Calm,Calm,-,N/A,,Overcast,0,2013-02-22 01:55:00
7:15 PM,26.6,15.8,64,29.94,10.0,Calm,Calm,-,N/A,,Mostly Cloudy,0,2013-02-22 02:15:00
7:55 PM,26.6,15.8,64,29.94,10.0,SSE,3.5,-,N/A,,Clear,150,2013-02-22 02:55:00
8:15 PM,24.8,15.8,69,29.94,10.0,SE,4.6,-,N/A,,Scattered Clouds,140,2013-02-22 03:15:00
8:35 PM,24.8,17.6,74,29.94,10.0,SSE,5.8,-,N/A,,Mostly Cloudy,150,2013-02-22 03:35:00
8:55 PM,24.8,17.6,74,29.94,10.0,South,6.9,-,N/A,,Scattered Clouds,180,2013-02-22 03:55:00
9:15 PM,24.8,17.6,74,29.94,10.0,South,6.9,-,N/A,,Partly Cloudy,170,2013-02-22 04:15:00
9:35 PM,23.0,17.6,80,29.94,10.0,South,4.6,-,N/A,,Clear,170,2013-02-22 04:35:00
9:55 PM,23.0,17.6,80,29.94,10.0,South,5.8,-,N/A,,Clear,170,2013-02-22 04:55:00
10:15 PM,21.2,15.8,80,29.93,10.0,South,4.6,-,N/A,,Scattered Clouds,180,2013-02-22 05:15:00
10:35 PM,21.2,15.8,80,29.93,10.0,South,4.6,-,N/A,,Scattered Clouds,180,2013-02-22 05:35:00
10:55 PM,21.2,15.8,80,29.93,10.0,SSW,5.8,-,N/A,,Clear,200,2013-02-22 05:55:00
11:15 PM,21.2,15.8,80,29.92,10.0,South,6.9,-,N/A,,Clear,180,2013-02-22 06:15:00
11:55 PM,17.6,15.8,93,29.92,10.0,South,8.1,-,N/A,,Clear,190,2013-02-22 06:55:00